This is the latest recevied weather packets stored in our database for station/object AB4KY. If no packets are shown the sender has not sent any weather packets the latest 10 day(s).
| Time | Temp. | Humidity | Pressure | Rain* | Wind** | Luminosity | Snow |
|---|---|---|---|---|---|---|---|
| 1778114857 | 12.22° C | 79% | 1012.3 hPa | 0 mm | - | 0 W/m² | - |
| 1778114555 | 12.22° C | 78% | 1012.2 hPa | 0 mm | - | 0 W/m² | - |
| 1778114251 | 12.22° C | 72% | 1012.1 hPa | 0 mm | - | 1 W/m² | - |
| 1778113946 | 12.78° C | 72% | 1011.9 hPa | 0 mm | - | 2 W/m² | - |
| 1778113643 | 12.78° C | 72% | 1012.1 hPa | 0 mm | - | 9 W/m² | - |
| 1778113339 | 13.33° C | 70% | 1011.9 hPa | 0 mm | - | 11 W/m² | - |
| 1778113036 | 12.78° C | 69% | 1011.7 hPa | 0 mm | - | 15 W/m² | - |
| 1778112733 | 13.33° C | 72% | 1011.9 hPa | 0 mm | - | 18 W/m² | - |
| 1778112429 | 13.33° C | 70% | 1011.8 hPa | 0 mm | - | 20 W/m² | - |
| 1778112125 | 13.33° C | 71% | 1011.8 hPa | 0 mm | - | 21 W/m² | - |
| 1778111822 | 13.33° C | 66% | 1011.7 hPa | 0 mm | - | 26 W/m² | - |
| 1778111517 | 13.33° C | 69% | 1011.6 hPa | 0 mm | - | 29 W/m² | - |
| 1778111215 | 13.33° C | 69% | 1011.6 hPa | 0 mm | - | 31 W/m² | - |
| 1778110912 | 13.33° C | 76% | 1011.7 hPa | 0 mm | - | 35 W/m² | - |
| 1778110609 | 13.33° C | 72% | 1011.8 hPa | 0 mm | - | 34 W/m² | - |
| 1778110306 | 13.33° C | 73% | 1011.7 hPa | 0 mm | - | 32 W/m² | - |
| 1778110002 | 13.33° C | 75% | 1011.7 hPa | 0 mm | - | 34 W/m² | - |
| 1778109697 | 13.33° C | 70% | 1011.8 hPa | 0 mm | - | 37 W/m² | - |
| 1778109395 | 13.33° C | 70% | 1011.8 hPa | 0 mm | - | 39 W/m² | - |
| 1778109094 | 13.89° C | 70% | 1012.1 hPa | 0 mm | - | 42 W/m² | - |
| 1778108790 | 13.89° C | 71% | 1011.5 hPa | 0 mm | - | 45 W/m² | - |
| 1778108487 | 13.89° C | 70% | 1011.6 hPa | 0 mm | - | 38 W/m² | - |
| 1778108183 | 13.89° C | 69% | 1011.4 hPa | 0 mm | - | 44 W/m² | - |
| 1778107880 | 13.89° C | 65% | 1011.4 hPa | 0 mm | - | 51 W/m² | - |
| 1778107577 | 13.89° C | 63% | 1011.3 hPa | 0 mm | - | 57 W/m² | - |
* Rain latest hour (hover to see other rain measurements)
** Current wind speed in m/s (hover to see current wind gust speed)